Regional Weather Roundup
Issued by NWS

Home | Current Version | Previous Version | Graphics & Text | Print | Product List | Glossary Off
Versions: 1 2 3 4 5 6 7 8 9 10 11 12 13 14 15 16 17 18 19 20 21 22 23 24 25 26 27 28 29 30 31 32 33 34 35 36 37 38 39 40 41 42 43 44 45 46 47 48 49 50

000
ASUS43 KTOP 181008
RWRKS

WEATHER ROUNDUP FOR KANSAS
NATIONAL WEATHER SERVICE GOODLAND KS
400 AM CST THU DEC 18 2014

NOTE:  "FAIR" INDICATES FEW OR NO CLOUDS BELOW 12,000 FEET WITH NO
SIGNIFICANT WEATHER AND/OR OBSTRUCTIONS TO VISIBILITY.

KSZ001>006-013>018-027>032-041>047-181100-
NORTHWEST KANSAS

CITY           SKY/WX    TMP DP  RH WIND       PRES   REMARKS
GOODLAND       CLOUDY    23  21  92 SE3       30.04S
HAYS           CLOUDY    25  18  74 NE8       30.12S
HILL CITY      CLOUDY    26  24  92 E7        30.12F
RUSSELL        LGT SNOW  26  25  96 NE6       30.12S FOG
$$

KSZ061>065-074>080-084>089-181100-
SOUTHWEST KANSAS

CITY           SKY/WX    TMP DP  RH WIND       PRES   REMARKS
DODGE CITY     CLOUDY    29  26  89 E5        30.08S
ELKHART          N/A     30  25  82 NW9         N/A
GARDEN CITY    CLOUDY    28  27  96 E7        30.06R FOG
GREAT BEND     CLOUDY    27  21  80 E6        30.13S
LIBERAL        CLOUDY    36  30  80 E5        30.05S VSB 1
PRATT          CLOUDY    30  28  93 E5        30.11S FOG
$$

KSZ066>073-081>083-090>101-181100-
SOUTHEAST KANSAS

CITY           SKY/WX    TMP DP  RH WIND       PRES   REMARKS
CHANUTE        LGT SNOW  31  30  96 E6        30.17F FOG
COFFEYVILLE    CLOUDY    33  33 100 NE5       30.17S FOG
HUTCHINSON     LGT SNOW  30  26  85 NE5       30.14S FOG
MEDICINE LODGE   N/A     31  31 100 E3        30.11S
NEWTON         CLOUDY    28  23  80 E5        30.14S
PARSONS        LGT SNOW  33  33 100 VRB3      30.18S FOG
WICHITA INTL   LGT SNOW  32  29  88 SE7       30.13F FOG
WICHITA JABRA  LGT SNOW  29  28  96 E6        30.13F FOG
WICHITA MCCONL FLURRIES  31  29  95 E6        30.13S
WINFIELD       CLOUDY    32  32 100 E7        30.14F FOG
$$

KSZ007>012-019>026-033>040-048>060-102>105-181100-
NORTHEAST KANSAS

CITY           SKY/WX    TMP DP  RH WIND       PRES   REMARKS
CONCORDIA      LGT SNOW  25  24  96 E5        30.17S FOG
EMPORIA        LGT SNOW  28  27  96 E7        30.16S VSB 3/4
LAWRENCE       LGT SNOW  28  26  92 E7        30.21F FOG
MANHATTAN      LGT SNOW  27  27 100 NE7       30.19F FOG
MARYSVILLE     LGT SNOW  28  27  93 SE3       30.19F
OLATHE IND     LGT SNOW  28  26  92 E7        30.20F FOG
OLATHE EXE     LGT SNOW  28  27  96 E7        30.19F FOG
SALINA         LGT SNOW  28  26  92 NE5       30.17F FOG
TOPEKA BILLARD LGT SNOW  29  27  92 E7        30.21F FOG
TOPEKA FORBES  LGT SNOW  30  26  85 E6        30.19F FOG
$$


USA.gov is the U.S. government's official web portal to all federal, state and local government web resources and services.